Retour au catalogue

CZ-3A R/B

ActifGTO
NORAD 43492·ROCKET BODY·🇨🇳 China

Lancé Jun 5, 2018 depuis Xichang Satellite Launch Center

Loading…

TLE

PériméSource: Space-Track

Époque: Sep 13, 2026, 07:23 UTC

1 43492U 18050B   26256.30779855  .00000746  00000-0  10894-2 0  9992
2 43492  24.6062  46.3956 7225100 297.3136   8.4264  2.30558766 68218

Suivez CZ-3A R/B en temps réel avec AllMySat

Download on the App Store